Voltar ao catálogo

NOAA 16 DEB

AtivoSSO
NORAD 41378·DEBRIS·🇺🇸 United States

Lançado Sep 21, 2000 de Vandenberg Space Force Base

Loading…

Próximas Passagens (próximas 24 horas)

TLE

AtualizadoSource: Space-Track

Época: Sep 14, 2026, 00:03 UTC

1 41378U 00055JX  26257.00230046  .00001739  00000-0  83437-3 0  9998
2 41378  98.6314 269.8380 0039208 241.1197 118.6043 14.19809053548942

Acompanhe NOAA 16 DEB em tempo real com AllMySat

Download on the App Store